| time (UTC) | temp F | wind direction | speed MPH | gust MPH | rain 1hr in | rain 24hr in | rain mn in | humidity % | barometer mb |
| 20260507011538 | 57 | 246 | 0.0 | 0.0 | 0.00 | 0.00 | 0.00 | 77 | 1005.6 |
| 20260507010028 | 57 | 287 | 0.0 | 0.0 | 0.00 | 0.00 | 0.00 | 77 | 1005.2 |
| 20260507004519 | 58 | 234 | 0.0 | 0.0 | 0.00 | 0.00 | 0.00 | 77 | 1005.1 |
| 20260507003013 | 58 | 244 | 0.0 | 0.0 | 0.00 | 0.00 | 0.00 | 76 | 1005.1 |
| 20260507001510 | 58 | 246 | 0.0 | 0.0 | 0.00 | 0.00 | 0.00 | 78 | 1004.7 |
| 20260507000059 | 58 | 244 | 0.0 | 0.0 | 0.00 | 0.00 | 0.00 | 82 | 1004.6 |
| 20260506234550 | 57 | 222 | 0.0 | 0.0 | 0.00 | 0.00 | 0.00 | 83 | 1004.8 |
| 20260506233054 | 57 | 209 | 0.0 | 0.0 | 0.00 | 0.00 | 0.00 | 84 | 1004.8 |
| 20260506231549 | 57 | 213 | 0.0 | 0.0 | 0.00 | 0.00 | 0.00 | 85 | 1004.8 |
| 20260506230047 | 56 | 187 | 0.0 | 0.0 | 0.00 | 0.00 | 0.00 | 85 | 1005.0 |
| 20260506224538 | 57 | 102 | 0.0 | 0.0 | 0.00 | 0.00 | 0.00 | 85 | 1005.2 |
| 20260506223031 | 57 | 177 | 0.0 | 0.0 | 0.00 | 0.00 | 0.00 | 83 | 1004.5 |
| 20260506221520 | 57 | 178 | 0.0 | 0.0 | 0.00 | 0.00 | 0.00 | 81 | 1004.3 |
| 20260506220012 | 58 | 194 | 0.0 | 0.0 | 0.00 | 0.00 | 0.00 | 78 | 1004.0 |
| 20260506214604 | 59 | 136 | 0.0 | 0.0 | 0.00 | 0.00 | 0.00 | 75 | 1003.8 |
| 20260506213056 | 60 | 321 | 0.0 | 0.0 | 0.00 | 0.00 | 0.00 | 75 | 1003.4 |
| 20260506211548 | 59 | 341 | 0.0 | 0.0 | 0.00 | 0.00 | 0.00 | 78 | 1003.2 |
| 20260506210049 | 58 | 341 | 0.0 | 0.0 | 0.00 | 0.00 | 0.00 | 81 | 1003.2 |
| 20260506204638 | 57 | 355 | 0.0 | 0.0 | 0.00 | 0.00 | 0.00 | 82 | 1003.2 |
| 20260506203025 | 58 | 300 | 0.0 | 0.0 | 0.00 | 0.00 | 0.00 | 82 | 1003.2 |
| 20260506201528 | 58 | 298 | 0.0 | 0.0 | 0.00 | 0.00 | 0.00 | 80 | 1003.3 |
| 20260506200019 | 58 | 228 | 0.0 | 0.0 | 0.00 | 0.00 | 0.00 | 79 | 1003.2 |
| 20260506194505 | 58 | 217 | 0.0 | 0.0 | 0.00 | 0.00 | 0.00 | 78 | 1003.2 |
| 20260506193058 | 58 | 238 | 0.0 | 0.0 | 0.00 | 0.00 | 0.00 | 80 | 1003.3 |
| 20260506191551 | 58 | 238 | 0.0 | 0.0 | 0.00 | 0.00 | 0.00 | 82 | 1003.6 |
| 20260506190045 | 58 | 233 | 0.0 | 0.0 | 0.00 | 0.00 | 0.00 | 81 | 1003.7 |
| 20260506184547 | 58 | 194 | 0.0 | 0.0 | 0.00 | 0.00 | 0.00 | 81 | 1003.8 |
| 20260506183026 | 59 | 221 | 0.0 | 0.0 | 0.00 | 0.00 | 0.00 | 82 | 1003.4 |
| 20260506181520 | 59 | 180 | 0.0 | 0.0 | 0.00 | 0.00 | 0.00 | 83 | 1003.3 |
| 20260506180013 | 60 | 252 | 0.0 | 0.0 | 0.00 | 0.00 | 0.00 | 82 | 1002.7 |
| 20260506174507 | 59 | 246 | 0.0 | 0.0 | 0.00 | 0.00 | 0.00 | 82 | 1002.4 |
| 20260506173118 | 59 | 243 | 0.0 | 0.0 | 0.00 | 0.00 | 0.00 | 83 | 1002.7 |
| 20260506171556 | 59 | 225 | 0.0 | 0.0 | 0.00 | 0.00 | 0.00 | 84 | 1002.6 |
| 20260506170050 | 59 | 245 | 0.0 | 0.0 | 0.00 | 0.00 | 0.00 | 84 | 1002.7 |
| 20260506164539 | 60 | 247 | 0.0 | 0.0 | 0.00 | 0.00 | 0.00 | 83 | 1003.2 |
| 20260506163114 | 61 | 197 | 0.0 | 0.0 | 0.00 | 0.00 | 0.00 | 81 | 1003.3 |
| 20260506161557 | 62 | 169 | 0.0 | 0.0 | 0.00 | 0.00 | 0.00 | 78 | 1002.7 |
| 20260506160038 | 63 | 209 | 0.0 | 0.0 | 0.00 | 0.00 | 0.00 | 72 | 1002.6 |
| 20260506154536 | 64 | 219 | 0.0 | 0.0 | 0.00 | 0.00 | 0.00 | 71 | 1003.0 |
| 20260506153020 | 65 | 176 | 0.0 | 0.0 | 0.00 | 0.00 | 0.00 | 67 | 1003.1 |
| 20260506151511 | 65 | 176 | 0.0 | 0.0 | 0.00 | 0.00 | 0.00 | 65 | 1003.3 |
| 20260506150059 | 66 | 209 | 0.0 | 0.0 | 0.00 | 0.00 | 0.00 | 61 | 1003.5 |
| 20260506144548 | 70 | 164 | 0.0 | 0.0 | 0.00 | 0.00 | 0.00 | 52 | 1003.6 |
| 20260506143042 | 71 | 331 | 0.0 | 0.0 | 0.00 | 0.00 | 0.00 | 47 | 1003.5 |
| 20260506141533 | 71 | 14 | 0.0 | 0.0 | 0.00 | 0.00 | 0.00 | 48 | 1003.5 |
| 20260506140123 | 71 | 69 | 0.0 | 0.0 | 0.00 | 0.00 | 0.00 | 47 | 1003.6 |
| 20260506134515 | 71 | 55 | 0.0 | 0.0 | 0.00 | 0.00 | 0.00 | 47 | 1003.7 |
| 20260506133006 | 71 | 13 | 0.0 | 0.0 | 0.00 | 0.00 | 0.00 | 46 | 1004.0 |
| 20260506131602 | 72 | 5 | 0.0 | 0.0 | 0.00 | 0.00 | 0.00 | 44 | 1004.2 |
| 20260506130053 | 73 | 79 | 0.0 | 0.0 | 0.00 | 0.00 | 0.00 | 44 | 1004.4 |
| 20260506124550 | 72 | 9 | 0.0 | 0.0 | 0.00 | 0.00 | 0.00 | 46 | 1004.6 |
| 20260506123048 | 72 | 124 | 0.0 | 0.0 | 0.00 | 0.00 | 0.00 | 47 | 1004.7 |
| 20260506121542 | 71 | 24 | 0.0 | 0.0 | 0.00 | 0.00 | 0.00 | 48 | 1004.7 |
| 20260506120005 | 71 | 25 | 0.0 | 0.0 | 0.00 | 0.00 | 0.00 | 48 | 1004.8 |
| 20260506114621 | 72 | 40 | 0.0 | 0.0 | 0.00 | 0.00 | 0.00 | 47 | 1005.0 |
| 20260506113053 | 71 | 19 | 0.0 | 0.0 | 0.00 | 0.00 | 0.00 | 49 | 1005.2 |
| 20260506111553 | 70 | 65 | 0.0 | 0.0 | 0.00 | 0.00 | 0.00 | 51 | 1005.2 |
| 20260506110050 | 69 | 83 | 0.0 | 0.0 | 0.00 | 0.00 | 0.00 | 51 | 1005.4 |
| 20260506104545 | 68 | 71 | 0.0 | 0.0 | 0.00 | 0.00 | 0.00 | 52 | 1005.6 |
| 20260506103036 | 68 | 102 | 0.0 | 0.0 | 0.00 | 0.00 | 0.00 | 53 | 1005.6 |
| 20260506101600 | 67 | 109 | 0.0 | 0.0 | 0.00 | 0.00 | 0.00 | 55 | 1005.7 |
| 20260506100053 | 67 | 52 | 0.0 | 0.0 | 0.00 | 0.00 | 0.00 | 55 | 1005.8 |
| 20260506094547 | 67 | 65 | 0.0 | 0.0 | 0.00 | 0.00 | 0.00 | 57 | 1005.8 |
| 20260506093101 | 65 | 107 | 0.0 | 0.0 | 0.00 | 0.00 | 0.00 | 59 | 1005.7 |
| 20260506091533 | 64 | 62 | 0.0 | 0.0 | 0.00 | 0.00 | 0.00 | 65 | 1005.8 |
| 20260506090025 | 64 | 360 | 0.0 | 0.0 | 0.00 | 0.00 | 0.00 | 62 | 1005.7 |
| 20260506084517 | 64 | 5 | 0.0 | 0.0 | 0.00 | 0.00 | 0.00 | 64 | 1005.6 |
| 20260506083008 | 63 | 57 | 0.0 | 0.0 | 0.00 | 0.00 | 0.00 | 67 | 1005.7 |
| 20260506081507 | 62 | 65 | 0.0 | 0.0 | 0.00 | 0.00 | 0.00 | 67 | 1005.7 |
| 20260506080111 | 62 | 360 | 0.0 | 0.0 | 0.00 | 0.00 | 0.00 | 67 | 1005.7 |
| 20260506073046 | 60 | 61 | 0.0 | 0.0 | 0.00 | 0.00 | 0.00 | 75 | 1005.7 |
| 20260506071539 | 59 | 70 | 0.0 | 0.0 | 0.00 | 0.00 | 0.00 | 78 | 1005.6 |
| 20260506061508 | 57 | 101 | 0.0 | 0.0 | 0.00 | 0.00 | 0.00 | 87 | 1005.5 |
| 20260506044521 | 55 | 10 | 0.0 | 0.0 | 0.00 | 0.00 | 0.00 | 91 | 1005.0 |
| 20260506043114 | 55 | 11 | 0.0 | 0.0 | 0.00 | 0.00 | 0.00 | 90 | 1004.9 |
| 20260506041505 | 55 | 59 | 0.0 | 0.0 | 0.00 | 0.00 | 0.00 | 90 | 1004.7 |
| 20260506034550 | 55 | 82 | 0.0 | 0.0 | 0.00 | 0.00 | 0.00 | 88 | 1004.6 |
| 20260506033043 | 56 | 38 | 0.0 | 0.0 | 0.00 | 0.00 | 0.00 | 85 | 1004.6 |
| 20260506031533 | 56 | 57 | 0.0 | 0.0 | 0.00 | 0.00 | 0.00 | 81 | 1004.4 |
| 20260506030025 | 56 | 207 | 0.0 | 0.0 | 0.00 | 0.00 | 0.00 | 79 | 1004.3 |
| 20260506024549 | 56 | 217 | 0.0 | 0.0 | 0.00 | 0.00 | 0.00 | 78 | 1003.9 |
| 20260506023052 | 56 | 355 | 0.0 | 0.0 | 0.00 | 0.00 | 0.00 | 77 | 1003.8 |
| 20260506021529 | 57 | 38 | 0.0 | 0.0 | 0.00 | 0.00 | 0.00 | 74 | 1004.0 |
| 20260506020035 | 58 | 250 | 0.0 | 0.0 | 0.00 | 0.00 | 0.00 | 70 | 1003.6 |
| 20260506014510 | 59 | 46 | 0.0 | 0.0 | 0.00 | 0.00 | 0.00 | 66 | 1004.0 |
| 20260506013005 | 59 | 78 | 0.0 | 0.0 | 0.00 | 0.00 | 0.00 | 65 | 1004.0 |